Regional Weather Roundup
Issued by NWS

Home | Current Version | Previous Version | Text Only | Print | Product List | Glossary On
Versions: 1 2 3 4 5 6 7 8 9 10 11 12 13 14 15 16 17 18 19 20 21 22 23 24 25 26 27 28 29 30 31 32 33 34 35 36 37 38 39 40 41 42 43 44 45 46 47 48 49 50
000
ASUS43 KLMK 310002
RWRKY
KENTUCKY REGIONAL WEATHER ROUNDUP
NATIONAL WEATHER SERVICE LOUISVILLE KY
800 PM EDT THU JUL 30 2015

NOTE "FAIR" INDICATES FEW OR NO CLOUDS BELOW 12,000 FEET
WITH NO SIGNIFICANT WEATHER AND/OR OBSTRUCTIONS TO VISIBILITY.

KYZ001>023-026-027-061>063-070>075-310100-
WESTERN AND SOUTH CENTRAL KENTUCKY

CITY           SKY/WX    TMP DP  RH WIND       PRES   REMARKS
PADUCAH        SUNNY     84  64  50 N5        30.07S
HENDERSON      MOSUNNY   82  64  54 N3        30.05S
OWENSBORO      SUNNY     84  64  50 CALM      30.06S
HOPKINSVILLE   SUNNY     81  63  53 N7        30.06R
BOWLING GREEN  CLEAR     84  60  44 N7        30.06S
GLASGOW        NOT AVBL
$$

KYZ024-025-028>034-038-045-046-053-310100-
NORTH CENTRAL KENTUCKY

CITY           SKY/WX    TMP DP  RH WIND       PRES   REMARKS
LOUISVILLE/SDF PTCLDY    84  56  38 NW12      30.04S
LOUISVILLE/LOU CLEAR     84  55  36 N7        30.05S
FORT KNOX      CLEAR     79  62  55 NW5       30.05S
$$

KYZ035>037-039>044-047>052-055>060-089>105-310100-
NORTHEAST KENTUCKY

CITY           SKY/WX    TMP DP  RH WIND       PRES   REMARKS
LEXINGTON      CLEAR     79  59  50 NW7       30.06R
COVINGTON      PTCLDY    82  56  40 N12       30.04S
FRANKFORT      CLEAR     81  60  48 NW3       30.04S
$$

KYZ054-064>069-076>088-106>120-310100-
SOUTHEAST KENTUCKY

CITY           SKY/WX    TMP DP  RH WIND       PRES   REMARKS
JACKSON        CLEAR     79  58  48 N5        30.05S
LONDON         CLEAR     82  57  42 NW10      30.05S
SOMERSET       NOT AVBL
MIDDLESBORO    CLEAR     81  64  55 N8        30.03S
MONTICELLO     CLEAR     80  64  58 N7        30.08S
$$



USA.gov is the U.S. government's official web portal to all federal, state and local government web resources and services.